Volver al catálogo

COSMOS 2282

ActivoMilitarGEO
NORAD 23168·PAYLOAD·🇷🇺 Russia

Lanzado Jul 6, 1994 desde Baikonur Cosmodrome

Loading…

TLE

ActualizadoSource: Space-Track

Época: Sep 14, 2026, 12:31 UTC

1 23168U 94038A   26257.52196493  .00000080  00000-0  00000-0 0  9993
2 23168  13.8537 352.0479 0005756 143.4508 237.6787  1.00310231117906

Sigue COSMOS 2282 en tiempo real con AllMySat

Download on the App Store